JACKL11 EGVH-EGLW

Flight info

Callsign JACKL11
Flight time 0h 49m
Altitude 3500
Route GST WITNEY BSO NORTHWOOD H9 GUTTERIDGE H10 BARNES EGLW
Aircraft AS65/L-VGD/C

Departure

Time 2026-04-22 17:46
Airport Stirling Lines Heliport (EGVH)

Arrival

Time 2026-04-22 18:36
Airport London Heliport (EGLW)
Time Latitude Longitude Altitude Speed Heading
2026-04-22 17:37 52.08094 -2.80148 245 ft 0 kts 18°
2026-04-22 17:45 52.08088 -2.80074 244 ft 16 kts 91°
2026-04-22 17:45 52.08187 -2.79692 398 ft 66 kts 88°
2026-04-22 17:46 52.08154 -2.78810 718 ft 89 kts 102°
2026-04-22 17:46 52.08082 -2.77623 854 ft 114 kts 99°
2026-04-22 17:46 52.08011 -2.76298 1010 ft 122 kts 101°
2026-04-22 17:46 52.07892 -2.74980 1307 ft 116 kts 102°
2026-04-22 17:47 52.07846 -2.73612 1490 ft 119 kts 95°
2026-04-22 17:47 52.07892 -2.72289 1689 ft 123 kts 86°
2026-04-22 17:47 52.08033 -2.70957 1970 ft 116 kts 83°
2026-04-22 17:47 52.08164 -2.69613 2038 ft 126 kts 94°
2026-04-22 17:48 52.08092 -2.68663 2081 ft 127 kts 106°
2026-04-22 17:48 52.07823 -2.66752 2103 ft 132 kts 110°
2026-04-22 17:48 52.07555 -2.65316 2102 ft 134 kts 114°
2026-04-22 17:48 52.07125 -2.63986 2087 ft 135 kts 133°
2026-04-22 17:49 52.06504 -2.62816 2016 ft 138 kts 135°
2026-04-22 17:49 52.05889 -2.61588 1916 ft 140 kts 134°
2026-04-22 17:49 52.05784 -2.61386 1905 ft 140 kts 135°
2026-04-22 17:49 52.05225 -2.60345 1866 ft 139 kts 136°
2026-04-22 17:50 52.04557 -2.59222 1810 ft 138 kts 140°
2026-04-22 17:50 52.03862 -2.58160 1812 ft 136 kts 143°
2026-04-22 17:50 52.03132 -2.57140 1780 ft 138 kts 144°
2026-04-22 17:50 52.02396 -2.56114 1718 ft 142 kts 142°
2026-04-22 17:51 52.01693 -2.54940 1651 ft 147 kts 139°
2026-04-22 17:51 52.01003 -2.53693 1620 ft 151 kts 139°
2026-04-22 17:51 52.00301 -2.52414 1555 ft 155 kts 138°
2026-04-22 17:51 51.99611 -2.51007 1414 ft 162 kts 138°
2026-04-22 17:52 51.98768 -2.49894 1426 ft 150 kts 162°
2026-04-22 17:52 51.97893 -2.49008 1485 ft 154 kts 147°
2026-04-22 17:52 51.97215 -2.47575 1348 ft 162 kts 133°
2026-04-22 17:52 51.96516 -2.46160 1352 ft 160 kts 136°
2026-04-22 17:53 51.95952 -2.44619 1428 ft 160 kts 121°
2026-04-22 17:53 51.95520 -2.42987 1593 ft 159 kts 115°
2026-04-22 17:53 51.95116 -2.41309 1627 ft 167 kts 118°
2026-04-22 17:53 51.94632 -2.39517 1493 ft 176 kts 121°
2026-04-22 17:54 51.94047 -2.37767 1415 ft 176 kts 127°
2026-04-22 17:54 51.93433 -2.36077 1369 ft 175 kts 124°
2026-04-22 17:54 51.92856 -2.34343 1340 ft 174 kts 126°
2026-04-22 17:54 51.92261 -2.32653 1353 ft 172 kts 128°
2026-04-22 17:55 51.91843 -2.31544 1341 ft 171 kts 128°
2026-04-22 17:55 51.91101 -2.29325 1519 ft 167 kts 123°
2026-04-22 17:55 51.90647 -2.27557 1458 ft 174 kts 113°
2026-04-22 17:55 51.90305 -2.25637 1483 ft 168 kts 102°
2026-04-22 17:56 51.90269 -2.24118 1468 ft 169 kts 95°
2026-04-22 17:56 51.90236 -2.22069 1496 ft 168 kts 89°
2026-04-22 17:56 51.90331 -2.20091 1525 ft 169 kts 88°
2026-04-22 17:56 51.90419 -2.18297 1581 ft 169 kts 86°
2026-04-22 17:57 51.90515 -2.16383 1646 ft 170 kts 86°
2026-04-22 17:57 51.90605 -2.14423 1625 ft 173 kts 87°
2026-04-22 17:57 51.90693 -2.12423 1561 ft 175 kts 87°
2026-04-22 17:57 51.90852 -2.10468 1584 ft 171 kts 81°
2026-04-22 17:58 51.91043 -2.08507 1569 ft 172 kts 84°
2026-04-22 17:58 51.91125 -2.06561 1544 ft 173 kts 90°
2026-04-22 17:58 51.91141 -2.04591 1539 ft 173 kts 94°
2026-04-22 17:58 51.91116 -2.02638 1533 ft 173 kts 94°
2026-04-22 17:59 51.91026 -2.00683 1570 ft 172 kts 99°
2026-04-22 17:59 51.90870 -1.98744 1544 ft 175 kts 104°
2026-04-22 17:59 51.90596 -1.96811 1547 ft 173 kts 106°
2026-04-22 17:59 51.90272 -1.94920 1507 ft 174 kts 113°
2026-04-22 18:00 51.89983 -1.93694 1511 ft 173 kts 117°
2026-04-22 18:00 51.89315 -1.91222 1492 ft 174 kts 120°
2026-04-22 18:00 51.88765 -1.89433 1431 ft 176 kts 124°
2026-04-22 18:00 51.88189 -1.87752 1337 ft 174 kts 124°
2026-04-22 18:01 51.87579 -1.85975 1194 ft 173 kts 128°
2026-04-22 18:01 51.87017 -1.84273 1200 ft 170 kts 117°
2026-04-22 18:01 51.86732 -1.82405 1347 ft 162 kts 106°
2026-04-22 18:01 51.86515 -1.80598 1504 ft 162 kts 105°
2026-04-22 18:02 51.86340 -1.78733 1633 ft 163 kts 98°
2026-04-22 18:02 51.86224 -1.76817 1672 ft 169 kts 99°
2026-04-22 18:02 51.86080 -1.74922 1665 ft 170 kts 101°
2026-04-22 18:02 51.85903 -1.73022 1714 ft 171 kts 103°
2026-04-22 18:03 51.85681 -1.71111 1759 ft 171 kts 107°
2026-04-22 18:03 51.85410 -1.69397 1794 ft 171 kts 110°
2026-04-22 18:03 51.85051 -1.67541 1815 ft 171 kts 114°
2026-04-22 18:03 51.84652 -1.65737 1858 ft 171 kts 116°
2026-04-22 18:04 51.84198 -1.63926 1854 ft 172 kts 118°
2026-04-22 18:04 51.83774 -1.62094 1782 ft 176 kts 116°
2026-04-22 18:04 51.83269 -1.60266 1727 ft 175 kts 121°
2026-04-22 18:04 51.82780 -1.58569 1725 ft 173 kts 119°
2026-04-22 18:05 51.82251 -1.56798 1659 ft 175 kts 121°
2026-04-22 18:05 51.81772 -1.55036 1846 ft 167 kts 118°
2026-04-22 18:05 51.81182 -1.53405 1941 ft 167 kts 136°
2026-04-22 18:05 51.80348 -1.52130 2069 ft 161 kts 152°
2026-04-22 18:06 51.79311 -1.51681 1942 ft 156 kts 199°
2026-04-22 18:06 51.78327 -1.52342 1723 ft 154 kts 221°
2026-04-22 18:06 51.77420 -1.53308 1400 ft 156 kts 227°
2026-04-22 18:06 51.76635 -1.54515 1078 ft 155 kts 234°
2026-04-22 18:07 51.76163 -1.55360 919 ft 152 kts 237°
2026-04-22 18:07 51.75440 -1.57328 439 ft 154 kts 258°
2026-04-22 18:07 51.75259 -1.58856 815 ft 118 kts 279°
2026-04-22 18:07 51.75819 -1.59745 1132 ft 129 kts 346°
2026-04-22 18:08 51.76635 -1.59123 1331 ft 150 kts 58°
2026-04-22 18:08 51.76660 -1.57379 1313 ft 164 kts 111°
2026-04-22 18:08 51.76160 -1.55660 1150 ft 168 kts 124°
2026-04-22 18:08 51.75458 -1.54131 960 ft 170 kts 139°
2026-04-22 18:09 51.74637 -1.52802 916 ft 163 kts 145°
2026-04-22 18:09 51.73945 -1.51745 1045 ft 155 kts 142°
2026-04-22 18:10 51.73781 -1.51467 1047 ft 156 kts 142°
2026-04-22 18:10 51.72958 -1.50264 1022 ft 156 kts 150°
2026-04-22 18:11 51.72109 -1.49215 1173 ft 150 kts 153°
2026-04-22 18:11 51.71264 -1.48265 1388 ft 147 kts 156°
2026-04-22 18:11 51.70373 -1.47350 1459 ft 153 kts 156°
2026-04-22 18:11 51.69630 -1.46099 1589 ft 160 kts 123°
2026-04-22 18:12 51.69238 -1.44409 1707 ft 163 kts 106°
2026-04-22 18:12 51.69029 -1.42604 1786 ft 164 kts 98°
2026-04-22 18:12 51.68918 -1.41395 1840 ft 166 kts 99°
2026-04-22 18:12 51.68708 -1.38925 1871 ft 169 kts 98°
2026-04-22 18:13 51.68539 -1.37050 1909 ft 168 kts 105°
2026-04-22 18:13 51.68283 -1.35167 1874 ft 171 kts 105°
2026-04-22 18:13 51.68102 -1.33341 1916 ft 168 kts 101°
2026-04-22 18:13 51.68008 -1.31362 1889 ft 170 kts 97°
2026-04-22 18:14 51.67958 -1.29357 1905 ft 170 kts 97°
2026-04-22 18:14 51.67832 -1.27733 1897 ft 170 kts 103°
2026-04-22 18:14 51.67597 -1.25843 1919 ft 169 kts 108°
2026-04-22 18:14 51.67345 -1.24197 1935 ft 168 kts 109°
2026-04-22 18:15 51.67026 -1.22362 1935 ft 170 kts 111°
2026-04-22 18:15 51.66677 -1.20570 1961 ft 167 kts 114°
2026-04-22 18:15 51.66298 -1.18783 1951 ft 169 kts 114°
2026-04-22 18:15 51.65900 -1.16993 1944 ft 170 kts 116°
2026-04-22 18:16 51.65474 -1.15226 1967 ft 168 kts 117°
2026-04-22 18:16 51.65042 -1.13448 1960 ft 168 kts 113°
2026-04-22 18:16 51.64790 -1.11591 1950 ft 170 kts 103°
2026-04-22 18:16 51.64648 -1.09717 1960 ft 169 kts 100°
2026-04-22 18:17 51.64530 -1.07827 1970 ft 169 kts 99°
2026-04-22 18:17 51.64392 -1.05925 1918 ft 169 kts 102°
2026-04-22 18:17 51.64189 -1.04018 1746 ft 173 kts 104°
2026-04-22 18:17 51.64022 -1.02158 1860 ft 166 kts 99°
2026-04-22 18:18 51.64054 -1.00263 1872 ft 169 kts 89°
2026-04-22 18:18 51.64135 -0.98371 1904 ft 169 kts 89°
2026-04-22 18:18 51.64199 -0.96474 1958 ft 169 kts 89°
2026-04-22 18:18 51.64251 -0.94582 1978 ft 169 kts 89°
2026-04-22 18:19 51.64299 -0.92678 2016 ft 167 kts 89°
2026-04-22 18:19 51.64364 -0.90801 2031 ft 167 kts 89°
2026-04-22 18:19 51.64441 -0.88926 1962 ft 171 kts 90°
2026-04-22 18:19 51.64252 -0.86953 1503 ft 182 kts 112°
2026-04-22 18:20 51.63912 -0.85058 1515 ft 171 kts 110°
2026-04-22 18:20 51.63696 -0.83184 1433 ft 172 kts 102°
2026-04-22 18:20 51.63543 -0.81250 1328 ft 172 kts 100°
2026-04-22 18:20 51.63530 -0.79337 1224 ft 172 kts 85°
2026-04-22 18:21 51.63950 -0.77550 1115 ft 168 kts 65°
2026-04-22 18:21 51.64458 -0.75844 1025 ft 168 kts 64°
2026-04-22 18:21 51.64918 -0.74186 1166 ft 159 kts 69°
2026-04-22 18:21 51.65268 -0.72461 1252 ft 160 kts 73°
2026-04-22 18:22 51.65578 -0.70776 1413 ft 159 kts 75°
2026-04-22 18:22 51.65767 -0.68968 1271 ft 165 kts 84°
2026-04-22 18:22 51.65892 -0.67116 1168 ft 165 kts 90°
2026-04-22 18:22 51.65955 -0.65309 1193 ft 161 kts 89°
2026-04-22 18:23 51.65996 -0.63509 1225 ft 160 kts 93°
2026-04-22 18:23 51.65958 -0.61724 1334 ft 155 kts 97°
2026-04-22 18:23 51.65847 -0.59976 1347 ft 161 kts 105°
2026-04-22 18:24 51.65202 -0.56579 1100 ft 156 kts 119°
2026-04-22 18:24 51.64756 -0.55029 1181 ft 151 kts 121°
2026-04-22 18:24 51.64530 -0.51822 1227 ft 147 kts 63°
2026-04-22 18:25 51.65238 -0.50842 1161 ft 126 kts
2026-04-22 18:25 51.65797 -0.51508 1054 ft 111 kts 277°
2026-04-22 18:25 51.65532 -0.52691 894 ft 119 kts 245°
2026-04-22 18:26 51.63892 -0.52611 993 ft 146 kts 146°
2026-04-22 18:26 51.63251 -0.51275 935 ft 151 kts 132°
2026-04-22 18:26 51.62667 -0.49885 832 ft 152 kts 132°
2026-04-22 18:26 51.62096 -0.48496 897 ft 146 kts 130°
2026-04-22 18:27 51.61533 -0.47117 952 ft 144 kts 130°
2026-04-22 18:27 51.60795 -0.46099 932 ft 142 kts 158°
2026-04-22 18:27 51.59944 -0.45296 954 ft 140 kts 163°
2026-04-22 18:27 51.59057 -0.44649 960 ft 139 kts 170°
2026-04-22 18:28 51.58141 -0.44124 889 ft 141 kts 175°
2026-04-22 18:28 51.57214 -0.43581 886 ft 141 kts 167°
2026-04-22 18:28 51.56321 -0.42914 872 ft 142 kts 164°
2026-04-22 18:28 51.55431 -0.42219 887 ft 140 kts 163°
2026-04-22 18:29 51.54701 -0.41233 948 ft 144 kts 116°
2026-04-22 18:29 51.54469 -0.39650 904 ft 146 kts 107°
2026-04-22 18:29 51.54232 -0.38070 890 ft 143 kts 107°
2026-04-22 18:29 51.54004 -0.36504 822 ft 146 kts 113°
2026-04-22 18:30 51.53681 -0.34978 819 ft 143 kts 116°
2026-04-22 18:30 51.53264 -0.31828 716 ft 141 kts 104°
2026-04-22 18:30 51.53096 -0.30267 737 ft 140 kts 111°
2026-04-22 18:31 51.52561 -0.29254 744 ft 129 kts 174°
2026-04-22 18:31 51.51686 -0.29183 670 ft 127 kts 197°
2026-04-22 18:31 51.50799 -0.29146 594 ft 133 kts 177°
2026-04-22 18:31 51.49926 -0.28620 572 ft 129 kts 179°
2026-04-22 18:32 51.49359 -0.28637 566 ft 122 kts 200°
2026-04-22 18:32 51.48354 -0.27960 482 ft 130 kts 150°
2026-04-22 18:32 51.47622 -0.27272 496 ft 123 kts 164°
2026-04-22 18:32 51.47062 -0.26280 450 ft 124 kts 97°
2026-04-22 18:33 51.47469 -0.25193 407 ft 113 kts 16°
2026-04-22 18:33 51.48225 -0.24943 405 ft 111 kts 14°
2026-04-22 18:33 51.48826 -0.24170 474 ft 120 kts 65°
2026-04-22 18:33 51.48725 -0.22936 529 ft 113 kts 154°
2026-04-22 18:34 51.48013 -0.22619 544 ft 103 kts 186°
2026-04-22 18:34 51.47349 -0.22336 501 ft 95 kts 159°
2026-04-22 18:34 51.46872 -0.21731 447 ft 84 kts 131°
2026-04-22 18:34 51.46611 -0.20953 507 ft 74 kts 111°
2026-04-22 18:35 51.46489 -0.20251 513 ft 60 kts 103°
2026-04-22 18:35 51.46439 -0.19592 468 ft 66 kts 90°
2026-04-22 18:35 51.46520 -0.18727 413 ft 88 kts 66°
2026-04-22 18:35 51.46846 -0.18086 324 ft 53 kts 57°
2026-04-22 18:36 51.46983 -0.17919 223 ft 18 kts 152°
2026-04-22 18:36 51.46982 -0.17866 88 ft 9 kts 241°
2026-04-22 18:36 51.46965 -0.17899 29 ft 0 kts 279°